Flag for United Kingdom Weather past 2 weeks in Brighton, England, United Kingdom

Now
63 °F

Clear.


Feels Like: 63 °F
Forecast: 61 / 76 °F
Wind: 7 mph from North

Location: London / Gatwick Airport

Current Time: Jul 24, 2014 at 4:58:21 AM

Latest Report: Jul 24, 2014 at 4:20 AM


Visibility: 10 mi

Pressure: 30.04 "Hg

Humidity: 83%

Dew point: 57 °F

Location of BrightonLocation

Historic Weather in Brighton — Graph

°F

Brighton temperature yesterday

Maximum temperature yesterday: 82 °F (at 3:20 PM)
Minimum temperature yesterday: 61 °F (at 3:50 AM)
Average temperature yesterday: 71 °F

Past Weeks' High & Low Weather Summary

 TemperatureHumidityPressure
High82 °F (Jul 17, 2:50 PM)100% (Jul 9, 5:50 AM)30.21 "Hg (Jul 9, 5:50 AM)
Low52 °F (Jul 11, 3:50 AM)41% (Jul 9, 4:50 PM)29.74 "Hg (Jul 13, 10:50 AM)
Average67 °F75%30.00 "Hg
* Reported Jul 9 3:50 AM — Jul 24 3:20 AM, Brighton, Weather by CustomWeather, © 2014

Note: Actual official high and low records may vary slightly from our data, if they occured in-between our weather recording intervals... More about our weather records

Advertising

Brighton weather history for previous 24 hours

 ConditionsComfort  
Time TempWeatherWind HumidityBarometerVisibility
3:20 AM
Jul 24
64 °FClear.3 mph83%30.04 "Hg10 mi
2:50 AM64 °FPassing clouds.5 mph83%30.04 "HgN/A
2:20 AM66 °FClear.5 mph78%30.04 "Hg10 mi
1:50 AM66 °FClear.5 mph78%30.04 "Hg10 mi
1:20 AM66 °FClear.7 mph78%30.04 "Hg10 mi
12:50 AM66 °FClear.6 mph78%30.07 "Hg10 mi
12:20 AM66 °FClear.7 mph83%30.07 "Hg10 mi
11:50 PM
Jul 23
68 °FClear.7 mph78%30.07 "Hg10 mi
11:20 PM68 °FClear.8 mph78%30.07 "Hg10 mi
10:50 PM68 °FClear.8 mph78%30.07 "Hg10 mi
10:20 PM70 °FClear.10 mph73%30.07 "Hg10 mi
9:50 PM70 °FPassing clouds.12 mph73%30.07 "HgN/A
9:20 PM72 °FSunny.8 mph65%30.07 "Hg10 mi
8:50 PM73 °FSunny.10 mph65%30.04 "Hg10 mi
8:20 PM73 °FSunny.13 mph65%30.04 "Hg10 mi
7:50 PM75 °FSunny.14 mph61%30.04 "Hg10 mi
7:20 PM77 °FSunny.13 mph57%30.04 "Hg10 mi
6:50 PM77 °FSunny.14 mph57%30.04 "Hg10 mi
6:20 PM79 °FSunny.12 mph54%30.04 "Hg10 mi
5:50 PM81 °FPassing clouds.14 mph54%30.04 "HgN/A
5:20 PM82 °FSunny.12 mph48%30.04 "Hg10 mi
4:50 PM82 °FSunny.13 mph48%30.04 "Hg10 mi
4:20 PM82 °FSunny.14 mph48%30.04 "Hg10 mi
3:50 PM82 °FPassing clouds.13 mph51%30.04 "HgN/A
3:20 PM82 °FPassing clouds.13 mph51%30.07 "HgN/A
2:50 PM81 °FPassing clouds.13 mph54%30.07 "HgN/A
2:20 PM81 °FScattered clouds.13 mph58%30.07 "HgN/A
1:20 PM79 °FScattered clouds.10 mph61%30.09 "HgN/A
12:50 PM77 °FScattered clouds.12 mph65%30.09 "HgN/A
12:20 PM77 °FPassing clouds.10 mph61%30.09 "HgN/A
10:50 AM72 °FPassing clouds.10 mph69%30.12 "HgN/A
10:20 AM72 °FPassing clouds.10 mph69%30.12 "HgN/A
9:50 AM70 °FSunny.9 mph73%30.12 "Hg10 mi
9:20 AM68 °FPassing clouds.10 mph78%30.12 "HgN/A
6:50 AM63 °FPassing clouds.9 mph83%30.15 "HgN/A
6:20 AM61 °FSunny.8 mph88%30.15 "Hg10 mi
5:50 AM61 °FPassing clouds.6 mph88%30.15 "HgN/A
5:20 AM61 °FClear.7 mph88%30.15 "Hg10 mi
4:50 AM61 °FClear.8 mph88%30.15 "Hg10 mi
4:20 AM61 °FClear.8 mph88%30.15 "Hg10 mi
Weather by CustomWeather, © 2014

See weather overviewHow to use our weather pages